Regional Weather Roundup
Issued by NWS

Home | Current Version | Previous Version | Text Only | Print | Product List | Glossary On
Versions: 1 2 3 4 5 6 7 8 9 10 11 12 13 14 15 16 17 18 19 20 21 22 23 24 25 26 27 28 29 30 31 32 33 34 35 36 37 38 39 40 41 42 43 44 45 46 47 48 49 50
000
ASUS46 KSTO 280315
RWRCA

NORTHERN AND CENTRAL CA REGIONAL WEATHER ROUNDUP
NATIONAL WEATHER SERVICE SACRAMENTO CA
800 PM PDT SAT MAY 27 2017

NOTE: FAIR INDICATES FEW OR NO CLOUDS BELOW 12,000 FEET WITH NO
SIGNIFICANT WEATHER AND/OR OBSTRUCTIONS TO VISIBILITY.

CAZ001-003-280400-
NORTHWEST AREA

CITY           SKY/WX    TMP DP  RH WIND       PRES   REMARKS
CRESCENT CITY  CLOUDY    54  50  86 S6        30.15S
UKIAH          CLEAR     69  50  50 N8        30.03R
$$

CAZ006-505>513-280400-
BAY AREA

CITY           SKY/WX    TMP DP  RH WIND       PRES   REMARKS
SANTA ROSA     CLEAR     60  52  74 SE9       30.05R
SAN RAFAEL     N/A       64  MM  MM MISG
NAPA           CLEAR     61  51  70 W16       30.05S
CONCORD        CLEAR     65  51  60 W12       30.05R
OAKLAND CITY   N/A      MM  MM  MM MISG
OAKLAND        PTCLDY    61  52  72 W17       30.09R
SAN FRAN CITY  N/A       56  MM  77 MISG
SAN FRAN ARPT  PTCLDY    57  49  74 W20       30.08S
LIVERMORE      CLEAR     62  49  62 W16       30.04S
HAYWARD        PTCLDY    60  49  66 NW12      30.08R
REDWOOD CITY   N/A       60  MM  69 MISG
MOFFETT ARPT   CLEAR     61  53  75 N14       30.07S
SAN JOSE ARPT  PTCLDY    62  52  69 NW14      30.07S
$$
CAZ034-037-514>518-280400-
CENTRAL COAST

CITY           SKY/WX    TMP DP  RH WIND       PRES   REMARKS
WATSONVILLE    CLEAR     56  54  93 SE6       30.08S
SALINAS        CLEAR     60  50  69 W10       30.09R
MONTEREY       PTCLDY    58  50  75 SW7       30.10S
SAN LUIS OBISP CLEAR     58  50  75 NW12      30.07R
SANTA MARIA    CLEAR     56  51  84 W13       30.07S
$$
CAZ015-016-280400-
NORTHERN SACRAMENTO VALLEY

CITY           SKY/WX    TMP DP  RH WIND       PRES   REMARKS
REDDING        CLEAR     81  54  39 S7        29.95R
RED BLUFF      CLEAR     79  56  45 S10       29.97R
OROVILLE       CLEAR     78  53  41 SE7       29.99S
$$
CAZ016>018-280400-
SOUTHERN SACRAMENTO VALLEY

CITY           SKY/WX    TMP DP  RH WIND       PRES   REMARKS
AUBURN         CLEAR     73  54  49 SW3       30.04S
BEALE AFB      CLEAR     75  56  51 S3        29.97S
LINCOLN        FAIR      75  50  41 S6        29.98S
MARYSVILLE     CLEAR     76  53  44 S7        29.98S
SAC INTL ARPT  CLEAR     72  56  57 S12       29.98S
MATHER AIRPORT NOT AVBL
DOWNTOWN SAC   N/A       72  MM  MM MISG
SAC EXEC ARPT  CLEAR    N/A N/A N/A S9        30.01S
VACAVILLE      CLEAR     72  54  53 SW8       30.00S
TRAVIS AFB     CLEAR     64  51  63 SW23      29.99S
$$
CAZ019>021-280400-
SAN JOAQUIN VALLEY

CITY           SKY/WX    TMP DP  RH WIND       PRES   REMARKS
STOCKTON       CLEAR     73  52  47 NW14      30.00S
MODESTO        CLEAR     77  53  43 NW9       29.98S
MERCED         CLEAR     75  53  46 NW8       29.98S
LEMOORE        CLEAR     77  50  38 N9        29.98S
FRESNO         PTCLDY    78  52  40 NW12      29.98S
HANFORD        CLEAR     77  53  43 NW10      29.98R
PORTERVILLE      N/A     78  53  41 NW6       29.98R
BAKERSFIELD    CLEAR     79  52  38 NW7       29.98R
$$
CAZ011-012-071-280400-
NORTHERN MOUNTAINS

CITY           SKY/WX    TMP DP  RH WIND       PRES   REMARKS
YREKA          CLEAR     80  39  23 CALM      30.02S
MOUNT SHASTA   CLEAR     73  39  29 CALM      30.08R
ALTURAS        CLEAR     75  31  19 CALM      30.12S
$$
CAZ011-012-071-280400-
SIERRA NEVADA MTNS

CITY           SKY/WX    TMP DP  RH WIND       PRES   REMARKS
BLUE CANYON    CLEAR     58  50  75 W5        30.20S
TRUCKEE        CLEAR     61  27  27 SE5       30.20S
TAHOE VLY ARPT CLEAR     57  29  34 CALM      30.21S
MAMMOTH LAKES  FAIR      60  31  33 NW9       30.24R
$$




USA.gov is the U.S. government's official web portal to all federal, state and local government web resources and services.